MEASAT-3B

Last updated on Sun Oct 06 2024 00:02:40 GMT+0000 (Coordinated Universal Time)

1 40147U 14054B 24279.55905115 -.00000232 00000+0 00000+0 0 9991 2 40147 0.0570 53.8102 0000597 86.4632 167.2243 1.00270782 36707
UTC large
Height (km)
Speed (km/s)
/
Latitude / Longitude
Inclination (degrees)
Orbital Period (minutes)
Azimuth
Elevation
Range (km)
Doppler Factor

Next 0 passes for location: London (51.5072 / 0.1276)

Sorry there are no passes over London.